QPF
0.00 0.00 0.00 0.00 0.00 0.00 0.00 0.00 0.01 0.02 0.02 0.02 0.02 0.02 0.00 0.00 0.00 0.00 0.00 0.00 0.00 0.00
0.00 0.00 0.00 0.00 0.00 0.00 0.01 0.01 0.02 0.04 0.05 0.05 0.05 0.07 0.06 0.04 0.02 0.01 0.00 0.00 0.00 0.00
0.00 0.00 0.00 0.00 0.00 0.00 0.00 0.01 0.03 0.05 0.05 0.06 0.08 0.09 0.08 0.07 0.06 0.04 0.02 0.00 0.00 0.00
0.00 0.00 0.00 0.00 0.00 0.00 0.00 0.00 0.01 0.01 0.04 0.08 0.06 0.05 0.08 0.07 0.06 0.04 0.02 0.01 0.00 0.00
0.00 0.00 0.00 0.00 0.00 0.00 0.00 0.00 0.00 0.00 0.01 0.05 0.06 0.04 0.04 0.03 0.03 0.03 0.02 0.00 0.00 0.00
0.00 0.00 0.00 0.00 0.00 0.00 0.00 0.00 0.00 0.00 0.00 0.00 0.00 0.01 0.04 0.04 0.03 0.03 0.02 0.00 0.00 0.00
0.00 0.00 0.00 0.00 0.00 0.00 0.00 0.00 0.00 0.00 0.00 0.00 0.01 0.03 0.06 0.05 0.03 0.02 0.00 0.00 0.00 0.00
0.00 0.00 0.00 0.00 0.00 0.00 0.00 0.00 0.00 0.00 0.00 0.00 0.02 0.05 0.08 0.07 0.03 0.02 0.01 0.00 0.00 0.00
0.00 0.00 0.00 0.00 0.00 0.00 0.00 0.00 0.00 0.00 0.00 0.02 0.03 0.02 0.03 0.04 0.02 0.01 0.00 0.00 0.00 0.00
0.00 0.00 0.00 0.00 0.00 0.00 0.00 0.01 0.01 0.02 0.04 0.04 0.02 0.01 0.02 0.02 0.01 0.00 0.00 0.00 0.00 0.00
0.00 0.00 0.00 0.00 0.00 0.01 0.01 0.01 0.02 0.01 0.02 0.01 0.01 0.01 0.01 0.00 0.00 0.00 0.00 0.00 0.00 0.00
0.00 0.00 0.00 0.00 0.00 0.00 0.00 0.01 0.02 0.02 0.02 0.00 0.00 0.00 0.00 0.00 0.00 0.00 0.00 0.00 0.00 0.00
0.00 0.00 0.00 0.00 0.00 0.00 0.00 0.00 0.00 0.00 0.00 0.00 0.00 0.00 0.00 0.00 0.00 0.00 0.00 0.00 0.00 0.00
0.00 0.00 0.00 0.00 0.00 0.00 0.00 0.00 0.00 0.00 0.00 0.00 0.00 0.00 0.00 0.00 0.00 0.00 0.00 0.00 0.00 0.00
MSLP
1015.43 1015.37 1015.24 1015.12 1015.03 1014.99 1014.97 1014.88 1014.77 1014.84 1014.72 1014.36 1013.71 1013.48 1013.30 1013.08 1012.90 1012.96 1013.08 1013.20 1012.96 1012.56
1015.46 1015.23 1015.29 1015.03 1014.83 1014.82 1014.76 1014.79 1014.80 1014.79 1014.72 1014.69 1014.33 1014.28 1013.55 1012.89 1012.66 1012.65 1012.50 1012.58 1012.82 1012.48
1015.31 1015.02 1014.96 1014.83 1014.60 1014.64 1014.44 1014.18 1014.06 1014.17 1013.97 1013.56 1013.77 1014.12 1014.08 1013.50 1012.52 1012.30 1012.01 1012.28 1012.61 1012.28
1015.23 1014.95 1014.71 1014.68 1014.56 1014.38 1014.07 1013.90 1013.63 1013.46 1013.27 1013.09 1012.74 1012.65 1013.85 1013.80 1012.26 1011.63 1011.65 1011.77 1012.51 1012.18
1014.90 1014.63 1014.51 1014.30 1014.04 1013.75 1013.54 1013.37 1013.20 1012.84 1012.70 1012.69 1012.42 1012.29 1012.42 1011.75 1011.81 1011.64 1011.57 1011.52 1011.71 1011.62
1014.75 1014.60 1014.26 1013.91 1013.47 1013.14 1012.77 1012.44 1012.21 1012.17 1012.05 1011.90 1011.79 1011.61 1011.38 1011.08 1011.64 1011.41 1011.60 1011.24 1011.48 1011.29
1014.52 1014.17 1013.84 1013.39 1013.14 1012.75 1012.23 1011.86 1011.52 1011.26 1011.05 1010.99 1010.76 1010.65 1010.73 1010.66 1010.84 1010.66 1010.97 1010.99 1010.98 1010.87
1013.99 1013.49 1013.17 1012.80 1012.43 1012.12 1011.61 1011.17 1010.78 1010.47 1010.22 1009.99 1010.00 1010.19 1010.27 1010.13 1010.20 1010.17 1010.08 1010.20 1010.30 1010.39
1013.87 1013.56 1013.37 1013.04 1012.66 1012.07 1011.70 1011.38 1010.71 1010.08 1009.98 1010.13 1010.09 1009.99 1009.68 1009.65 1010.16 1010.23 1010.41 1009.68 1009.30 1009.15
1014.32 1014.07 1013.76 1013.35 1012.90 1012.56 1012.15 1011.61 1011.26 1011.16 1010.51 1009.87 1009.69 1009.62 1009.60 1009.43 1009.42 1009.88 1009.34 1008.87 1008.64 1008.15
1014.67 1014.32 1013.81 1013.42 1012.89 1012.67 1012.18 1011.70 1011.42 1011.01 1010.54 1010.32 1009.63 1009.69 1009.30 1009.01 1009.10 1009.06 1008.80 1008.51 1008.05 1007.98
1014.71 1014.14 1013.62 1013.24 1012.77 1012.54 1012.02 1011.32 1010.83 1010.43 1009.97 1010.24 1009.88 1009.75 1009.60 1009.05 1008.69 1008.18 1007.80 1007.48 1007.34 1007.52
1014.71 1014.26 1013.73 1013.12 1012.62 1012.13 1011.61 1011.16 1010.58 1010.37 1010.14 1009.70 1009.33 1009.07 1009.01 1008.56 1008.02 1007.79 1007.62 1007.42 1007.09 1007.00
1014.94 1014.16 1013.50 1012.88 1012.40 1011.98 1011.62 1011.18 1010.62 1010.26 1009.81 1009.39 1008.87 1008.34 1007.95 1007.59 1007.42 1007.23 1007.13 1007.00 1006.93 1006.78
Thickness
5588 5583 5579 5574 5569 5564 5558 5554 5552 5546 5542 5541 5542 5539 5536 5533 5531 5527 5525 5526 5528 5533
5571 5568 5562 5557 5552 5546 5541 5536 5530 5523 5518 5511 5510 5504 5502 5500 5498 5496 5497 5496 5496 5501
5553 5549 5541 5534 5528 5523 5518 5514 5508 5498 5492 5490 5481 5474 5470 5471 5475 5472 5467 5464 5463 5467
5531 5526 5519 5511 5503 5499 5497 5489 5481 5474 5468 5465 5463 5462 5450 5447 5453 5455 5450 5447 5439 5445
5511 5505 5498 5491 5483 5476 5472 5464 5456 5451 5446 5441 5444 5444 5437 5435 5427 5432 5432 5431 5429 5429
5491 5483 5476 5468 5461 5455 5448 5445 5443 5438 5435 5432 5431 5430 5430 5421 5418 5421 5418 5419 5416 5417
5473 5463 5453 5446 5441 5437 5438 5437 5436 5432 5429 5424 5422 5419 5415 5408 5408 5411 5409 5407 5407 5408
5455 5446 5438 5433 5430 5428 5426 5425 5424 5422 5419 5418 5414 5407 5401 5398 5397 5396 5400 5399 5397 5397
5435 5427 5422 5417 5413 5411 5408 5405 5406 5409 5404 5399 5396 5392 5390 5384 5378 5379 5381 5390 5393 5395
5414 5409 5404 5401 5397 5391 5387 5385 5383 5379 5382 5385 5384 5380 5377 5372 5372 5370 5376 5382 5386 5392
5398 5395 5392 5386 5382 5375 5371 5369 5364 5363 5365 5367 5371 5367 5367 5366 5362 5363 5366 5369 5376 5381
5385 5383 5379 5373 5368 5362 5359 5357 5353 5354 5358 5354 5357 5354 5352 5355 5356 5359 5361 5364 5369 5373
5374 5369 5365 5361 5356 5354 5352 5350 5349 5348 5347 5348 5350 5348 5346 5346 5350 5351 5351 5351 5357 5363
5362 5360 5356 5351 5348 5347 5344 5343 5344 5343 5343 5342 5342 5344 5343 5342 5341 5342 5343 5344 5346 5353